Lid_Strength_Index
8 11 13 11 10 10 11 12 13 12 10 11 12 12 10 9 8 8 7 8 7 7 6 5 4 4 3 2 2 2 2 2 2 4 5 6 6 5 5 5 5 6 7 6
10 13 9 8 9 10 11 13 13 11 9 11 12 12 10 10 10 9 9 7 7 6 6 6 5 4 3 3 2 2 2 2 2 3 3 4 4 5 5 5 6 6 6 7
12 11 8 10 11 12 12 13 13 13 11 10 11 14 12 10 10 10 9 7 7 6 6 6 6 5 4 3 3 2 2 2 2 2 2 3 3 5 6 6 6 7 6 6
11 8 10 11 12 11 15 10 11 12 13 17 11 19 13 11 12 11 10 9 8 7 7 7 7 6 4 3 3 3 3 2 2 2 2 3 3 5 5 5 6 6 6 6
12 11 11 12 11 10 13 10 11 12 14 15 15 17 16 12 13 12 10 9 8 7 7 6 7 6 4 4 3 3 2 2 3 2 2 2 3 3 4 5 6 6 6 6
10 7 9 10 9 9 9 12 12 13 14 20 17 17 18 15 13 12 10 9 7 6 6 6 5 5 6 5 4 3 3 3 3 3 2 3 3 3 4 4 6 6 6 6
12 11 9 8 13 11 12 14 19 21 21 23 15 16 16 12 11 10 10 9 7 5 6 6 6 5 5 5 4 3 3 3 3 3 3 3 3 3 3 4 5 5 6 6
17 19 12 9 12 13 14 14 19 23 23 19 14 19 16 11 10 8 8 8 7 7 7 7 7 7 7 7 7 5 4 3 3 2 3 3 3 3 3 3 3 4 5 5
16 17 11 10 10 10 14 16 12 17 17 19 18 15 11 12 13 11 10 9 10 9 9 10 10 10 10 11 10 10 9 8 5 3 2 2 3 3 3 3 3 4 4 5
14 19 12 11 10 10 12 11 19 18 22 27 21 18 20 18 17 14 12 11 12 12 12 12 11 12 11 11 11 10 10 11 10 9 5 2 2 3 3 5 5 5 5 6
12 15 16 13 18 16 15 17 15 16 19 22 22 21 16 17 16 17 14 13 13 13 13 13 12 11 11 11 11 11 11 11 11 10 8 5 4 3 4 5 7 10 12 12
12 15 19 17 13 11 13 15 16 21 22 18 18 22 15 16 16 16 14 14 13 13 13 13 12 11 11 11 11 11 11 11 11 11 10 9 7 7 9 9 10 10 10 11
13 16 20 20 16 13 16 14 16 17 17 21 20 21 15 15 16 16 16 14 14 14 13 13 12 12 11 12 12 12 11 11 11 11 10 10 10 9 10 10 11 10 10 10
9 17 17 20 19 16 17 16 17 18 20 20 20 21 18 17 17 17 16 16 15 14 14 14 13 12 12 11 11 12 12 11 11 10 10 10 10 10 11 10 10 10 11 11
11 18 17 17 16 16 16 17 18 20 20 21 21 21 19 17 17 17 16 16 17 17 16 15 15 13 13 13 12 12 11 11 11 11 11 11 11 11 11 11 11 11 11 12
13 16 17 19 18 15 15 16 17 18 19 20 19 20 17 15 16 17 17 17 18 18 17 16 15 14 14 14 13 12 12 12 11 12 12 12 11 11 11 11 11 11 11 11
14 14 19 23 18 16 18 19 18 18 18 19 21 19 17 18 18 18 18 17 18 18 17 17 16 15 14 14 13 13 13 12 12 13 13 13 13 13 12 12 12 11 11 11
12 14 16 20 18 23 17 15 15 17 18 17 17 18 17 17 17 17 17 17 18 18 17 17 16 15 15 14 13 13 13 13 13 14 14 13 13 14 14 14 13 13 12 12
12 14 17 21 23 18 15 16 17 18 19 17 18 18 17 16 14 17 17 17 17 17 17 16 16 15 15 15 14 15 15 15 15 15 15 14 14 14 14 14 14 14 14 13
14 14 16 20 22 24 20 17 14 15 21 18 18 19 18 16 21 21 16 16 16 16 16 16 16 16 16 15 14 15 16 16 16 16 16 15 15 15 15 15 15 14 13 14
21 19 20 18 20 19 16 14 13 21 21 19 18 17 17 19 18 17 17 18 19 18 16 16 17 17 17 16 15 17 17 17 16 16 16 16 15 16 15 15 15 15 14 14
20 22 19 21 21 21 15 14 18 20 20 16 15 18 17 18 19 19 18 18 19 20 19 18 17 17 18 16 16 17 18 17 17 18 18 17 17 15 15 16 16 15 15 15
18 15 17 15 17 15 16 18 19 19 20 15 15 16 15 16 17 16 17 17 16 16 17 18 19 19 19 18 18 19 18 17 17 18 19 19 18 16 16 16 16 16 16 15
13 12 15 16 13 15 16 15 15 16 14 13 13 14 14 16 16 17 16 17 17 16 17 17 19 20 19 18 18 18 18 18 19 18 18 17 17 17 17 16 16 15 16 16
12 12 14 14 11 13 13 12 13 14 14 13 13 14 15 16 17 17 16 16 16 16 17 18 19 19 19 19 19 20 19 20 20 18 17 17 16 17 17 17 17 16 16 16
12 13 14 15 11 12 12 12 12 13 13 13 14 15 15 15 16 16 16 16 17 18 17 19 20 20 21 21 21 22 22 22 23 20 17 17 17 17 17 17 17 15 15 14